[[{"header":{"parameterUnit":"m.s-1","parameterCategory":1,"la1":30.2992,"la2":30.254,"lo1":-89.0895,"lo2":-89.0443,"dy":0.0025,"dx":0.0025,"nx":19,"ny":19,"refTime":"2026-03-17T03:00:00:Z","depth":0,"parameterNumber":2,"parameterNumberName":"U-component_of_WINDS"},"data":[0,0,0,-1.351,-1.351,-1.3497,-1.3497,-1.3512,-1.3512,0,0,0,0,0,0,0,0,0,0,0,-1.3532,-1.3532,-1.351,-1.351,-1.3497,-1.3497,-1.3512,-1.3512,0,0,0,0,0,0,0,0,0,0,0,-1.3531,-1.3532,-1.3533,-1.351,-1.3497,-1.3497,-1.3512,-1.3511,0,0,0,0,0,0,0,0,0,0,-1.3518,-1.3554,-1.3532,-1.3533,-1.351,-1.3497,-1.3497,-1.351,-1.3511,-1.3531,0,-1.3552,0,-1.3533,-1.3515,-1.3515,0,0,0,-1.3498,-1.3554,-1.3535,-1.3533,-1.351,-1.3497,-1.3499,-1.351,-1.3511,-1.3532,-1.3552,-1.3552,-1.3533,-1.3516,-1.3516,-1.3672,-1.3674,0,0,-1.3498,-1.3539,-1.3534,-1.3536,-1.3538,-1.35,-1.3499,-1.351,-1.3535,-1.3552,-1.3552,-1.3533,-1.3516,-1.3516,-1.3671,-1.3673,0,0,0,-1.3509,-1.354,-1.3519,-1.3536,-1.3532,-1.35,-1.3499,-1.3534,-1.3524,-1.3551,-1.3533,-1.3516,-1.3517,-1.367,-1.3672,-1.3777,0,0,0,-1.3509,-1.3546,-1.352,-1.3545,-1.3532,-1.3532,-1.3524,-1.3524,-1.3524,-1.3533,-1.3516,-1.3517,-1.3668,-1.3671,-1.3771,-1.382,0,0,0,-1.3527,-1.3548,-1.3552,-1.3547,-1.3543,-1.3531,-1.3521,-1.3523,-1.3513,-1.3515,-1.3517,-1.3667,-1.367,-1.3765,-1.3811,-1.3875,0,0,0,-1.3557,-1.3645,-1.3554,-1.3645,-1.3543,-1.3596,-1.3521,-1.3558,-1.3572,-1.3516,-1.3668,-1.3672,-1.3764,-1.3805,-1.3869,-1.3936,-1.3967,0,0,-1.369,-1.3662,-1.3712,-1.3631,-1.371,-1.3595,-1.369,-1.3665,-1.3628,-1.3661,-1.3664,-1.3773,-1.381,-1.3873,-1.4127,-1.4152,0,0,0,-1.3768,-1.3805,-1.3817,-1.3833,-1.3816,-1.3806,-1.3762,-1.3754,-1.3779,-1.3652,-1.3811,-1.3832,-1.3868,-1.3898,-1.3919,-1.3948,-1.3687,-1.3687,-1.3686,-1.4014,-1.3963,-1.4044,-1.3993,-1.4009,-1.3964,-1.3974,-1.3955,-1.3898,-1.3937,-1.3946,-1.4106,-1.4143,-1.4159,-1.4189,-1.3976,-1.3977,-1.3977,-1.3977,-1.4205,-1.4251,-1.4175,-1.4226,-1.4173,-1.4216,-1.4178,-1.4137,-1.4172,-1.4094,-1.4123,-1.4043,-1.4188,-1.4212,-1.3985,-1.3984,-1.3983,-1.3982,-1.3981,-1.4362,-1.4374,-1.4362,-1.4381,-1.4402,-1.4347,-1.4385,-1.4334,-1.4288,-1.4316,-1.4322,-1.432,-1.4313,-1.4322,-1.4323,-1.4323,-1.4324,-1.4324,-1.4325,-1.4529,-1.4512,-1.4548,-1.454,-1.4544,-1.4545,-1.4503,-1.4507,-1.4499,-1.446,-1.446,-1.4402,-1.4211,-1.4165,-1.4333,-1.4332,-1.433,-1.433,-1.4329,-1.4743,-1.4687,-1.4743,-1.4748,-1.4736,-1.4762,-1.4698,-1.4711,-1.4707,-1.4728,-1.4664,-1.4531,-1.4499,-1.4481,-1.4443,-1.4673,-1.4673,-1.4673,-1.4673,-1.4875,-1.4854,-1.4902,-1.4914,-1.492,-1.4869,-1.4938,-1.4908,-1.4868,-1.4864,-1.4823,-1.4768,-1.4752,-1.473,-1.4707,-1.467,-1.4953,-1.4953,-1.4954,-1.5005,-1.4983,-1.505,-1.5009,-1.4997,-1.4988,-1.5052,-1.5071,-1.5015,-1.4964,-1.486,-1.4848,-1.4758,-1.4731,-1.4678,-1.4644,-1.4576,0,0]},{"header":{"parameterUnit":"m.s-1","parameterCategory":1,"la1":30.2992,"la2":30.254,"lo1":-89.0895,"lo2":-89.0443,"dy":0.0025,"dx":0.0025,"nx":19,"ny":19,"refTime":"2026-03-17T03:00:00:Z","depth":0,"parameterNumber":3,"parameterNumberName":"V-component_of_WINDS"},"data":[0,0,0,2.1626,2.1624,2.1515,2.1514,2.1371,2.137,0,0,0,0,0,0,0,0,0,0,0,2.166,2.1659,2.1627,2.1624,2.1515,2.1514,2.1371,2.137,0,0,0,0,0,0,0,0,0,0,0,2.166,2.1659,2.1658,2.1623,2.1515,2.1514,2.1372,2.1455,0,0,0,0,0,0,0,0,0,0,2.1561,2.1594,2.166,2.1658,2.1623,2.1515,2.1514,2.1459,2.1449,2.1421,0,2.1398,0,2.1382,2.136,2.136,0,0,0,2.1622,2.1602,2.1572,2.1658,2.1622,2.1515,2.1563,2.1453,2.1443,2.1408,2.1396,2.139,2.138,2.136,2.1359,2.1206,2.1205,0,0,2.1628,2.164,2.1579,2.1565,2.1585,2.1567,2.156,2.1447,2.1433,2.1395,2.1387,2.1377,2.1359,2.1358,2.1207,2.1206,0,0,0,2.1647,2.1644,2.1617,2.1571,2.1552,2.1564,2.1556,2.1438,2.1428,2.1386,2.1376,2.1358,2.1356,2.1207,2.1206,2.1188,0,0,0,2.165,2.1655,2.162,2.1626,2.1554,2.1494,2.1549,2.1436,2.1423,2.1376,2.1358,2.1355,2.1208,2.1207,2.119,2.1176,0,0,0,2.1666,2.1657,2.1642,2.1627,2.1581,2.1496,2.1479,2.1433,2.1417,2.136,2.1354,2.1208,2.1207,2.1191,2.1179,2.1139,0,0,0,2.1686,2.1625,2.1642,2.1569,2.1582,2.1486,2.148,2.1407,2.1357,2.1357,2.1208,2.1206,2.1192,2.118,2.1141,2.1107,2.1094,0,0,2.1615,2.1617,2.1573,2.1585,2.1491,2.1502,2.1403,2.1343,2.1325,2.1246,2.1242,2.1189,2.1179,2.1139,2.1022,2.1013,0,0,0,2.1555,2.1524,2.1496,2.145,2.1405,2.1365,2.132,2.1298,2.1231,2.1288,2.1164,2.1158,2.1134,2.1117,2.1108,2.1087,2.12,2.12,2.12,2.1469,2.1453,2.138,2.135,2.1305,2.1261,2.1222,2.1184,2.1178,2.1149,2.1125,2.1056,2.1037,2.1031,2.1008,2.1107,2.1107,2.1106,2.1106,2.1363,2.1315,2.1312,2.124,2.1222,2.116,2.1114,2.1113,2.105,2.1073,2.1051,2.1075,2.102,2.1,2.1105,2.1105,2.1105,2.1105,2.1106,2.1304,2.1278,2.1255,2.1188,2.1137,2.1108,2.105,2.1035,2.102,2.0999,2.0971,2.0971,2.0968,2.0987,2.0987,2.0987,2.0986,2.0986,2.0986,2.1251,2.1226,2.118,2.1129,2.1098,2.1055,2.1011,2.0978,2.0939,2.0932,2.0932,2.0928,2.1019,2.1042,2.0982,2.0983,2.0983,2.0984,2.0984,2.1146,2.1168,2.1097,2.1067,2.1006,2.0956,2.0939,2.0875,2.0847,2.0818,2.082,2.089,2.0889,2.0896,2.0914,2.0825,2.0825,2.0825,2.0825,2.1095,2.1095,2.102,2.0971,2.0922,2.0901,2.0819,2.0784,2.075,2.0731,2.0742,2.0766,2.0773,2.0768,2.0777,2.0794,2.0676,2.0675,2.0675,2.1029,2.1024,2.0958,2.0929,2.0881,2.0839,2.0761,2.0704,2.067,2.0669,2.0715,2.0721,2.0759,2.0773,2.0771,2.0785,2.0816,0,0]}]]